Regional Weather Roundup
Issued by NWS Cleveland, OH

Home | Current Version | Previous Version | Graphics & Text | Print | Product List | Glossary On
Versions: 1 2 3 4 5 6 7 8 9 10 11 12 13 14 15 16 17 18 19 20 21 22 23 24 25 26 27 28 29 30 31 32 33 34 35 36 37 38 39 40 41 42 43 44 45 46 47 48 49 50
615
ASUS41 KCLE 230900
RWRCLE
OHIO REGIONAL WEATHER ROUNDUP
NATIONAL WEATHER SERVICE WILMINGTON, OH
400 AM EST THU FEB 23 2017

NOTE: "FAIR" INDICATES FEW OR NO CLOUDS BELOW 12,000 FEET WITH NO
SIGNIFICANT WEATHER AND/OR OBSTRUCTIONS TO VISIBILITY.

OHZ001>008-015>018-024>027-034-035-043-044-231000-
   NORTHWEST OHIO

CITY           SKY/WX    TMP DP  RH WIND       PRES   REMARKS
DEFIANCE       MOCLDY    56  52  86 SW13      29.69S
FINDLAY        FAIR      56  51  84 S12       29.71S
TOLEDO EXPRESS FAIR      57  55  93 SW13      29.67F
TOLEDO EXEC    FAIR      57  54  89 S15       29.69F
LIMA           FAIR      56  54  93 S10       29.73S
$$

OHZ009>014-019>023-028>033-038-089-231000-
   NORTHEAST OHIO

CITY           SKY/WX    TMP DP  RH WIND       PRES   REMARKS
CLE-HOPKINS    CLOUDY    59  53  80 S15       29.76S
CLE-LAKEFRONT  CLOUDY    60  53  77 S18       29.72S
CUY CO. ARPT   NOT AVBL
LORAIN-ELYRIA  CLOUDY    56  52  86 S9        29.73F
ASHTABULA      CLOUDY    55  52  89 S14       29.75F
AKRON-CANTON   CLOUDY    55  52  89 S7        29.78F FOG
WOOSTER        NOT AVBL
MANSFIELD      MOCLDY    56  55  97 S14       29.76F
YOUNGSTOWN     CLOUDY    55  51  86 S9        29.78F
$$

OHZ042-051>053-060>062-070>072-077>081-231000-
  SOUTHWEST OHIO

CITY           SKY/WX    TMP DP  RH WIND       PRES   REMARKS
CINC-COVINGTON MOCLDY    58  56  93 SW5       29.80R
CINC-LUNKEN    CLOUDY    54  54 100 CALM      29.80S
HAMILTON       CLOUDY    52  52 100 CALM      29.80S FOG
DAYTON         NOT AVBL
WRIGHT-PAT AFB NOT AVBL
DAYTON GENERAL MOCLDY    54  54 100 S7        29.78S
WILMINGTON     CLOUDY    56  55  97 S6        29.79S
$$

OHZ036-037-039>041-045>050-054>059-063>069-073>076-082>088-231000-
  CENTRAL AND SOUTHEAST OHIO

CITY           SKY/WX    TMP DP  RH WIND       PRES   REMARKS
COLUMBUS       MOCLDY    56  54  93 S7        29.78F FOG
OSU AIRPORT    MOCLDY    54  54 100 S8        29.78S FOG
BOLTON FIELD   NOT AVBL
RICKENBACK AFB NOT AVBL
NEWARK         FAIR      53  52  96 CALM      29.79S FOG
MARION         MOCLDY    55  53  93 S14       29.76F FOG
LANCASTER      MOCLDY    56  54  93 S5        29.80S
ZANESVILLE     CLOUDY    55  53  93 S6        29.80F
NEW PHILLY     CLOUDY    56  54  93 S5        29.80F
$$




USA.gov is the U.S. government's official web portal to all federal, state and local government web resources and services.